[[{"header":{"parameterUnit":"m.s-1","parameterCategory":1,"la1":30.2991,"la2":30.254,"lo1":-89.0895,"lo2":-89.0444,"dy":0.0017,"dx":0.0017,"nx":28,"ny":28,"refTime":"2025-08-05T03:00:00:Z","depth":0,"parameterNumber":2,"parameterNumberName":"U-component_of_WINDS"},"data":[0,0,0,0,0,0,0,0,0,0,0,0,0,0,0,0,0,0,0,0,0,0,0,0,0,0,0,0,0,0,0,0,0,0,0,0,0,0,0,0,0,0,0,0,0,0,0,0,0,0,0,0,0,0,0,0,0,0,-3.0418,-3.0418,0,-3.0379,-3.0379,-3.0378,-3.028,-3.0278,-3.0276,-3.0274,-3.0235,-3.0236,-3.0237,0,0,0,0,0,0,0,0,0,0,0,0,0,-3.0408,-3.0408,-3.0418,-3.0418,-3.0417,-3.0379,-3.0379,-3.0378,-3.028,-3.0278,-3.0275,-3.0273,-3.0235,-3.0236,-3.0237,0,0,0,0,0,0,0,0,0,0,0,0,0,-3.0395,-3.0408,-3.0418,-3.0364,-3.0358,-3.0379,-3.0379,-3.0378,-3.0281,-3.0278,-3.0275,-3.0272,-3.0234,-3.0236,-3.0237,-3.0308,0,0,-3.0241,-3.0242,0,0,0,0,0,0,0,0,-3.0396,-3.0395,-3.0372,-3.0367,-3.0362,-3.0331,-3.0361,-3.0355,-3.0282,-3.031,-3.0274,-3.027,-3.027,-3.0268,-3.0267,-3.0306,-3.0304,-3.0241,-3.0242,-3.0243,-3.0243,0,0,0,0,0,0,0,-3.0397,-3.0396,-3.0403,-3.0372,-3.0366,-3.0341,-3.0336,-3.0359,-3.0308,-3.0308,-3.03,-3.0297,-3.0266,-3.0266,-3.0266,-3.0304,-3.0241,-3.0242,-3.0243,-3.0244,-3.0396,-3.0399,0,0,0,0,0,0,-3.0405,-3.0398,-3.0404,-3.0401,-3.0371,-3.0344,-3.0338,-3.0344,-3.0307,-3.0299,-3.03,-3.0293,-3.0266,-3.0264,-3.0264,-3.0343,-3.0243,-3.0244,-3.0245,-3.0393,-3.0397,-3.04,0,0,0,0,0,0,-3.0406,-3.0407,-3.0405,-3.0398,-3.0396,-3.0347,-3.0355,-3.0345,-3.0345,-3.0302,-3.0292,-3.0309,-3.0263,-3.0262,-3.0297,-3.034,-3.0245,-3.0246,-3.0389,-3.0394,-3.0399,-3.0502,0,0,0,0,0,0,-3.0406,-3.0407,-3.0434,-3.0399,-3.0396,-3.044,-3.0358,-3.0347,-3.0348,-3.0338,-3.0308,-3.03,-3.0261,-3.0296,-3.0299,-3.034,-3.0247,-3.0385,-3.0391,-3.0397,-3.0494,-3.051,-3.0523,0,0,0,0,0,-3.0406,-3.0465,-3.0436,-3.0437,-3.0429,-3.0442,-3.0441,-3.0394,-3.0352,-3.0377,-3.0349,-3.0301,-3.0335,-3.03,-3.0302,-3.0345,-3.0382,-3.039,-3.0397,-3.0488,-3.0507,-3.0522,0,0,0,0,0,0,-3.0507,-3.046,-3.0427,-3.0477,-3.0464,-3.0426,-3.0457,-3.0415,-3.0415,-3.0406,-3.0348,-3.0342,-3.0384,-3.0368,-3.033,-3.0411,-3.0351,-3.0359,-3.0419,-3.0437,-3.0451,-3.0453,-3.0248,0,0,0,0,0,-3.0536,-3.055,-3.0508,-3.0557,-3.0552,-3.0506,-3.051,-3.0475,-3.046,-3.0454,-3.0428,-3.0416,-3.0423,-3.0429,-3.0434,-3.0492,-3.0483,-3.0523,-3.0537,-3.0549,-3.0556,-3.0583,-3.0599,-3.0424,-3.0424,-3.0424,0,0,-3.0594,-3.057,-3.0583,-3.0576,-3.0562,-3.0579,-3.0502,-3.0523,-3.0534,-3.0457,-3.0488,-3.0469,-3.0451,-3.0497,-3.0516,-3.0485,-3.0602,-3.0558,-3.0568,-3.0568,-3.0592,-3.0609,-3.0623,-3.0429,-3.0428,-3.0428,0,0,-3.0708,-3.0693,-3.073,-3.0717,-3.0697,-3.0666,-3.0675,-3.0642,-3.0626,-3.0656,-3.0598,-3.0611,-3.0626,-3.0614,-3.0611,-3.072,-3.0675,-3.0723,-3.0797,-3.0824,-3.0838,-3.085,-3.0886,-3.0901,-3.0731,-3.0731,-3.0731,0,-3.0783,-3.0805,-3.0754,-3.0778,-3.0776,-3.0707,-3.0744,-3.0734,-3.0717,-3.0717,-3.0683,-3.0698,-3.0682,-3.0723,-3.075,-3.075,-3.0757,-3.0726,-3.084,-3.0851,-3.0862,-3.0896,-3.091,-3.0737,-3.0736,-3.0736,-3.0735,0,-3.0898,-3.0914,-3.0947,-3.093,-3.0933,-3.0963,-3.0916,-3.0925,-3.089,-3.0862,-3.0893,-3.087,-3.0868,-3.0875,-3.0842,-3.0912,-3.0893,-3.085,-3.0788,-3.0885,-3.0916,-3.0929,-3.0746,-3.0743,-3.0742,-3.074,0,0,-3.1075,-3.1029,-3.1042,-3.1032,-3.1005,-3.1016,-3.1044,-3.1041,-3.1048,-3.1039,-3.1059,-3.1073,-3.1032,-3.1028,-3.0993,-3.1017,-3.1102,-3.0971,-3.0969,-3.0994,-3.1176,-3.1206,-3.1222,-3.1073,-3.1075,-3.1077,-3.1176,0,-3.118,-3.1223,-3.1178,-3.123,-3.1243,-3.1177,-3.1201,-3.1186,-3.1161,-3.1169,-3.1141,-3.1151,-3.1098,-3.1095,-3.1116,-3.1088,-3.1138,-3.108,-3.109,-3.1091,-3.1094,-3.1239,-3.1272,-3.1366,-3.1188,-3.1191,-3.1192,0,-3.1309,-3.1304,-3.1358,-3.1325,-3.1329,-3.1351,-3.1343,-3.1352,-3.1334,-3.1314,-3.1309,-3.1265,-3.1289,-3.123,-3.1261,-3.1223,-3.1224,-3.1211,-3.1213,-3.1211,-3.1146,-3.1238,-3.1396,-3.1409,-3.1211,-3.121,-3.1208,0,-3.143,-3.1437,-3.1469,-3.1464,-3.1427,-3.1443,-3.1429,-3.1407,-3.1408,-3.1402,-3.1402,-3.14,-3.1398,-3.1397,-3.1354,-3.1315,-3.1389,-3.1327,-3.1372,-3.1373,-3.1388,-3.1388,-3.1546,-3.1394,-3.1394,-3.1393,-3.1393,0,-3.1551,-3.1586,-3.1522,-3.1542,-3.1578,-3.1526,-3.1564,-3.1542,-3.1524,-3.1538,-3.1482,-3.1496,-3.1439,-3.1447,-3.1414,-3.1443,-3.1443,-3.1427,-3.1417,-3.143,-3.1432,-3.1429,-3.142,-3.1397,-3.1396,-3.1396,-3.1395,0,-3.1691,-3.165,-3.1681,-3.1643,-3.1634,-3.1663,-3.163,-3.1646,-3.1618,-3.1636,-3.1637,-3.1592,-3.1598,-3.1556,-3.1555,-3.1532,-3.1577,-3.1557,-3.1583,-3.1575,-3.1621,-3.1617,-3.1781,-3.1799,-3.1638,-3.164,-3.1641,0,-3.177,-3.1795,-3.176,-3.1765,-3.1753,-3.1762,-3.1762,-3.1711,-3.1714,-3.1694,-3.1713,-3.1714,-3.1712,-3.1726,-3.1693,-3.1691,-3.1669,-3.1727,-3.1669,-3.168,-3.1667,-3.1665,-3.1666,-3.1739,-3.1741,-3.1742,-3.1744,0,-3.1914,-3.1892,-3.1894,-3.1889,-3.1891,-3.1885,-3.1875,-3.1882,-3.1827,-3.1833,-3.1838,-3.1837,-3.1835,-3.1837,-3.1828,-3.1813,-3.1769,-3.1763,-3.1772,-3.1785,-3.1798,-3.1789,-3.1613,-3.1759,-3.1757,-3.1756,-3.1755,-3.1755,-3.2024,-3.2042,-3.202,-3.2023,-3.2011,-3.2002,-3.2015,-3.1987,-3.1991,-3.1985,-3.1955,-3.1966,-3.1945,-3.1929,-3.1918,-3.1925,-3.1897,-3.1912,-3.1915,-3.1919,-3.1926,-3.1799,-3.1924,-3.1923,-3.1923,-3.1922,-3.1922,0,-3.2163,-3.2145,-3.2149,-3.2136,-3.2139,-3.2098,-3.2084,-3.2089,-3.2099,-3.2084,-3.2083,-3.2088,-3.2089,-3.2056,-3.2053,-3.2065,-3.2044,-3.2065,-3.2063,-3.2059,-3.1952,-3.1943,-3.2082,-3.2082,-3.2082,-3.2082,-3.2082,-3.2082,-3.2235,-3.2262,-3.2238,-3.2259,-3.224,-3.2249,-3.2245,-3.2237,-3.2224,-3.2232,-3.2232,-3.2211,-3.2188,-3.2183,-3.2181,-3.2172,-3.2172,-3.2199,-3.2183,-3.2083,-3.2067,-3.2052,-3.2043,-3.2201,-3.2201,-3.2288,-3.2289,-3.229]},{"header":{"parameterUnit":"m.s-1","parameterCategory":1,"la1":30.2991,"la2":30.254,"lo1":-89.0895,"lo2":-89.0444,"dy":0.0017,"dx":0.0017,"nx":28,"ny":28,"refTime":"2025-08-05T03:00:00:Z","depth":0,"parameterNumber":3,"parameterNumberName":"V-component_of_WINDS"},"data":[0,0,0,0,0,0,0,0,0,0,0,0,0,0,0,0,0,0,0,0,0,0,0,0,0,0,0,0,0,0,0,0,0,0,0,0,0,0,0,0,0,0,0,0,0,0,0,0,0,0,0,0,0,0,0,0,0,0,-2.3107,-2.3107,0,-2.3086,-2.3086,-2.3086,-2.3042,-2.3041,-2.304,-2.3039,-2.3014,-2.3014,-2.3014,0,0,0,0,0,0,0,0,0,0,0,0,0,-2.3103,-2.3104,-2.3107,-2.3107,-2.3107,-2.3086,-2.3086,-2.3086,-2.3042,-2.3041,-2.304,-2.3039,-2.3014,-2.3014,-2.3014,0,0,0,0,0,0,0,0,0,0,0,0,0,-2.3096,-2.3104,-2.3107,-2.3082,-2.308,-2.3086,-2.3086,-2.3085,-2.3042,-2.3041,-2.3039,-2.3038,-2.3014,-2.3014,-2.3015,-2.3042,0,0,-2.3015,-2.3015,0,0,0,0,0,0,0,0,-2.3096,-2.3096,-2.3086,-2.3084,-2.3081,-2.3065,-2.3075,-2.3071,-2.3042,-2.3056,-2.3039,-2.3037,-2.3032,-2.3031,-2.3029,-2.3041,-2.304,-2.3015,-2.3015,-2.3015,-2.3016,0,0,0,0,0,0,0,-2.3097,-2.3097,-2.3099,-2.3086,-2.3083,-2.307,-2.3068,-2.3074,-2.3052,-2.3055,-2.3052,-2.305,-2.303,-2.3029,-2.3029,-2.304,-2.3015,-2.3015,-2.3016,-2.3016,-2.3067,-2.3069,0,0,0,0,0,0,-2.3102,-2.3097,-2.3099,-2.3098,-2.3086,-2.3071,-2.3069,-2.3072,-2.3051,-2.3047,-2.3051,-2.3048,-2.303,-2.3028,-2.3028,-2.3055,-2.3015,-2.3016,-2.3016,-2.3066,-2.3068,-2.3069,0,0,0,0,0,0,-2.3102,-2.3102,-2.31,-2.3097,-2.3096,-2.3073,-2.3077,-2.3072,-2.3071,-2.3049,-2.3044,-2.3055,-2.3029,-2.3027,-2.3038,-2.3054,-2.3016,-2.3016,-2.3065,-2.3067,-2.3068,-2.3114,0,0,0,0,0,0,-2.3102,-2.3103,-2.3115,-2.3097,-2.3096,-2.3113,-2.3078,-2.3072,-2.3072,-2.3068,-2.3051,-2.3047,-2.3027,-2.3038,-2.3038,-2.3054,-2.3016,-2.3063,-2.3066,-2.3068,-2.3111,-2.3117,-2.3122,0,0,0,0,0,-2.3102,-2.3129,-2.3116,-2.3116,-2.3111,-2.3114,-2.3113,-2.3092,-2.3074,-2.3084,-2.3069,-2.3047,-2.3052,-2.3039,-2.3039,-2.3055,-2.3062,-2.3065,-2.3068,-2.3108,-2.3116,-2.3122,0,0,0,0,0,0,-2.3149,-2.3126,-2.3111,-2.3134,-2.3126,-2.3107,-2.312,-2.3101,-2.3098,-2.3094,-2.3066,-2.3062,-2.3076,-2.3067,-2.3053,-2.3078,-2.3053,-2.3056,-2.3084,-2.3091,-2.3097,-2.3098,-2.3016,0,0,0,0,0,-2.3161,-2.3168,-2.3147,-2.3169,-2.3166,-2.3144,-2.3144,-2.3128,-2.3119,-2.3115,-2.3101,-2.3091,-2.309,-2.309,-2.3088,-2.3109,-2.3102,-2.3119,-2.3125,-2.313,-2.3133,-2.3138,-2.3145,-2.3078,-2.3078,-2.3078,0,0,-2.3188,-2.3177,-2.3182,-2.3178,-2.317,-2.3175,-2.3141,-2.3149,-2.3151,-2.3116,-2.3125,-2.3114,-2.3101,-2.3115,-2.3121,-2.3108,-2.3149,-2.3134,-2.3138,-2.3137,-2.3142,-2.3148,-2.3154,-2.308,-2.308,-2.3079,0,0,-2.3239,-2.3232,-2.3248,-2.324,-2.3228,-2.3213,-2.3216,-2.3199,-2.319,-2.3199,-2.3171,-2.3172,-2.3173,-2.3163,-2.3159,-2.3201,-2.3179,-2.3201,-2.3231,-2.3237,-2.3242,-2.3247,-2.3259,-2.3264,-2.3204,-2.3204,-2.3204,0,-2.3274,-2.3281,-2.3258,-2.3266,-2.3263,-2.3231,-2.3244,-2.3238,-2.3226,-2.3224,-2.3209,-2.3205,-2.3195,-2.3205,-2.3215,-2.3213,-2.3214,-2.3203,-2.3244,-2.3248,-2.3252,-2.3263,-2.3268,-2.3206,-2.3206,-2.3206,-2.3206,0,-2.3322,-2.3328,-2.3341,-2.333,-2.3329,-2.334,-2.3316,-2.3316,-2.3299,-2.3284,-2.329,-2.3276,-2.3269,-2.327,-2.3254,-2.3276,-2.3268,-2.3249,-2.3223,-2.3261,-2.3271,-2.3275,-2.321,-2.3209,-2.3208,-2.3208,0,0,-2.3404,-2.3378,-2.3383,-2.3376,-2.3359,-2.3361,-2.3369,-2.3362,-2.3362,-2.3354,-2.3357,-2.3356,-2.3337,-2.3331,-2.3313,-2.3318,-2.3348,-2.3298,-2.3297,-2.3306,-2.3368,-2.3382,-2.3388,-2.3334,-2.3335,-2.3335,-2.3369,0,-2.345,-2.3463,-2.344,-2.3457,-2.346,-2.3427,-2.3433,-2.3422,-2.3407,-2.3405,-2.3387,-2.3386,-2.3363,-2.3359,-2.3363,-2.3344,-2.336,-2.3342,-2.3334,-2.3334,-2.3338,-2.3393,-2.3408,-2.3441,-2.3373,-2.3373,-2.3374,0,-2.3505,-2.3499,-2.3517,-2.3495,-2.3495,-2.3501,-2.3491,-2.349,-2.3475,-2.3463,-2.3455,-2.3433,-2.3435,-2.3411,-2.3412,-2.3399,-2.3394,-2.3384,-2.3385,-2.3383,-2.3356,-2.339,-2.3451,-2.3455,-2.338,-2.338,-2.3379,0,-2.356,-2.3556,-2.3565,-2.356,-2.3536,-2.354,-2.353,-2.3513,-2.3509,-2.3499,-2.3496,-2.3486,-2.3481,-2.3472,-2.3446,-2.3432,-2.3449,-2.3423,-2.3437,-2.3437,-2.3442,-2.3442,-2.3501,-2.3442,-2.3441,-2.3441,-2.3441,0,-2.3612,-2.3624,-2.3589,-2.3594,-2.3604,-2.3577,-2.3587,-2.3573,-2.3558,-2.3558,-2.3529,-2.3529,-2.3495,-2.3491,-2.347,-2.3472,-2.347,-2.3458,-2.3453,-2.346,-2.3462,-2.3456,-2.3453,-2.3443,-2.3442,-2.3442,-2.3442,0,-2.3675,-2.3653,-2.366,-2.3635,-2.3629,-2.3637,-2.3615,-2.3617,-2.3599,-2.3599,-2.3598,-2.3569,-2.3561,-2.3535,-2.3521,-2.3507,-2.3514,-2.3504,-2.352,-2.3516,-2.353,-2.3528,-2.3586,-2.3591,-2.3531,-2.3532,-2.3532,0,-2.371,-2.3718,-2.3693,-2.3691,-2.3682,-2.368,-2.3675,-2.3647,-2.3642,-2.3623,-2.3627,-2.3617,-2.3608,-2.3597,-2.3573,-2.3561,-2.3549,-2.357,-2.3547,-2.3553,-2.3546,-2.3546,-2.3545,-2.3575,-2.3576,-2.3577,-2.3577,0,-2.3772,-2.376,-2.3755,-2.3745,-2.374,-2.3731,-2.372,-2.3719,-2.3687,-2.3683,-2.3675,-2.3668,-2.3652,-2.3641,-2.3625,-2.3611,-2.3588,-2.3584,-2.3586,-2.3594,-2.3602,-2.3595,-2.3531,-2.3583,-2.3583,-2.3582,-2.3582,-2.3582,-2.3821,-2.3824,-2.3807,-2.3801,-2.3789,-2.3779,-2.3779,-2.376,-2.3753,-2.3739,-2.3722,-2.3715,-2.3695,-2.3671,-2.3658,-2.365,-2.3638,-2.3642,-2.3642,-2.3643,-2.3646,-2.3604,-2.3647,-2.3647,-2.3647,-2.3647,-2.3647,0,-2.3879,-2.3866,-2.3861,-2.3846,-2.384,-2.3819,-2.3804,-2.38,-2.3795,-2.3779,-2.377,-2.3758,-2.3747,-2.3721,-2.3707,-2.3705,-2.3693,-2.3702,-2.3701,-2.3697,-2.3659,-2.3658,-2.3711,-2.3711,-2.3711,-2.3711,-2.3711,-2.3711,-2.3909,-2.3914,-2.3899,-2.3895,-2.3881,-2.3875,-2.3868,-2.3856,-2.3843,-2.3832,-2.3823,-2.3806,-2.3785,-2.3767,-2.3755,-2.3747,-2.3742,-2.3753,-2.3742,-2.3707,-2.3701,-2.3695,-2.3693,-2.3753,-2.3753,-2.378,-2.3781,-2.3781]}]]